^^
B2 Weather Station Historical Data
Daily Summary for December 27, 2017 Units:  Metric    English   Both
Daily Weekly Monthly Yearly Custom
  High: Low: Average:
Temperature: -15.2 °C -21.5 °C -18.4 °C
Dew Point: -20 °C -24.1 °C -21.8 °C
Humidity: 83% 63% 75%
Wind Speed: 18.5km/h 0km/h 8.4km/h
Wind Gust: 18.5km/h - -
Wind- - WNW
Pressure: 1044.9 hPa 1040.5 hPa -
Precipitation: 0 mm    
Historical Graphs
 
 
Tabular Data for December 27, 2017
Time Temperature Dew Point Pressure Wind Wind Speed Wind Gust Humidity Rainfall Rate (Hourly) solar
00:00 -18.4 °C -21.6 °C 1040.9 hPa WNW 14.8 km/h 14.8 km/h 76% 0 mm 0.0 W/m2
00:02 -18.5 °C -21.7 °C 1040.9 hPa WNW 13 km/h 13 km/h 76% 0 mm 0.0 W/m2
00:07 -18.5 °C -21.7 °C 1040.9 hPa WNW 9.3 km/h 9.3 km/h 76% 0 mm 0.0 W/m2
00:09 -18.5 °C -21.7 °C 1040.9 hPa WNW 9.3 km/h 9.3 km/h 76% 0 mm 0.0 W/m2
00:14 -18.5 °C -21.7 °C 1040.9 hPa WNW 7.4 km/h 7.4 km/h 76% 0 mm 0.0 W/m2
00:18 -18.6 °C -21.7 °C 1040.5 hPa WNW 11.1 km/h 11.1 km/h 76% 0 mm 0.0 W/m2
00:19 -18.6 °C -21.8 °C 1040.5 hPa NW 9.3 km/h 9.3 km/h 76% 0 mm 0.0 W/m2
00:24 -18.7 °C -21.9 °C 1040.5 hPa WNW 11.1 km/h 11.1 km/h 76% 0 mm 0.0 W/m2
00:25 -18.7 °C -21.9 °C 1040.5 hPa WNW 13 km/h 13 km/h 76% 0 mm 0.0 W/m2
00:30 -18.8 °C -21.9 °C 1040.5 hPa WNW 13 km/h 13 km/h 76% 0 mm 0.0 W/m2
00:35 -18.8 °C -22 °C 1040.5 hPa WNW 9.3 km/h 9.3 km/h 76% 0 mm 0.0 W/m2
00:36 -18.8 °C -21.9 °C 1040.5 hPa WNW 14.5 km/h 14.5 km/h 76% 0 mm 0.0 W/m2
00:41 -18.8 °C -22 °C 1040.5 hPa WNW 13 km/h 13 km/h 76% 0 mm 0.0 W/m2
00:46 -18.8 °C -21.8 °C 1040.9 hPa WNW 11.1 km/h 11.1 km/h 77% 0 mm 0.0 W/m2
00:47 -18.8 °C -21.8 °C 1040.9 hPa WNW 11.1 km/h 11.1 km/h 77% 0 mm 0.0 W/m2
00:52 -18.9 °C -21.9 °C 1040.9 hPa WNW 5.6 km/h 5.6 km/h 77% 0 mm 0.0 W/m2
00:53 -18.9 °C -21.9 °C 1040.9 hPa WNW 11.3 km/h 11.3 km/h 77% 0 mm 0.0 W/m2
00:55 -18.9 °C -21.9 °C 1040.9 hPa WNW 11.1 km/h 11.1 km/h 77% 0 mm 0.0 W/m2
00:58 -18.9 °C -21.9 °C 1040.9 hPa WNW 11.1 km/h 11.1 km/h 77% 0 mm 0.0 W/m2
01:00 -18.9 °C -21.9 °C 1040.9 hPa WNW 11.1 km/h 11.1 km/h 77% 0 mm 0.0 W/m2
01:03 -18.9 °C -21.9 °C 1040.9 hPa WNW 9.3 km/h 9.3 km/h 77% 0 mm 0.0 W/m2
01:08 -19 °C -22 °C 1040.9 hPa WNW 11.1 km/h 11.1 km/h 77% 0 mm 0.0 W/m2
01:09 -19 °C -22 °C 1040.9 hPa WNW 9.3 km/h 9.3 km/h 77% 0 mm 0.0 W/m2
01:10 -19.1 °C -22.1 °C 1040.9 hPa WNW 8 km/h 8 km/h 77% 0 mm 0.0 W/m2
01:14 -19.1 °C -22.1 °C 1040.9 hPa WNW 11.1 km/h 11.1 km/h 77% 0 mm 0.0 W/m2
01:15 -19.1 °C -22.1 °C 1040.9 hPa WNW 9.3 km/h 9.3 km/h 77% 0 mm 0.0 W/m2
01:20 -19.1 °C -22.1 °C 1040.9 hPa WNW 14.8 km/h 14.8 km/h 77% 0 mm 0.0 W/m2
01:21 -19.1 °C -22.1 °C 1040.9 hPa WNW 14.8 km/h 14.8 km/h 77% 0 mm 0.0 W/m2
01:26 -19.1 °C -22.1 °C 1040.9 hPa WNW 14.8 km/h 14.8 km/h 77% 0 mm 0.0 W/m2
01:28 -19.1 °C -22.1 °C 1040.9 hPa NW 11.1 km/h 11.1 km/h 77% 0 mm 0.0 W/m2
01:33 -19.1 °C -21.9 °C 1040.9 hPa NW 9.7 km/h 9.7 km/h 78% 0 mm 0.0 W/m2
01:38 -19.1 °C -22.1 °C 1040.9 hPa WNW 11.1 km/h 11.1 km/h 77% 0 mm 0.0 W/m2
01:43 -19.1 °C -22 °C 1041.2 hPa WNW 7.4 km/h 7.4 km/h 78% 0 mm 0.0 W/m2
01:44 -19.1 °C -22.1 °C 1040.9 hPa WNW 6.4 km/h 6.4 km/h 77% 0 mm 0.0 W/m2
01:49 -19.2 °C -22.1 °C 1040.9 hPa NW 9.3 km/h 9.3 km/h 78% 0 mm 0.0 W/m2
01:54 -19.3 °C -22.2 °C 1041.2 hPa WNW 5.6 km/h 6 km/h 78% 0 mm 0.0 W/m2
01:55 -19.3 °C -22.2 °C 1041.2 hPa WNW 9.7 km/h 9.7 km/h 78% 0 mm 0.0 W/m2
02:00 -19.4 °C -22.3 °C 1041.2 hPa WNW 5.6 km/h 5.6 km/h 78% 0 mm 0.0 W/m2
02:01 -19.4 °C -22.3 °C 1041.2 hPa WNW 7.4 km/h 7.4 km/h 78% 0 mm 0.0 W/m2
02:06 -19.4 °C -22.3 °C 1041.2 hPa WNW 9.3 km/h 9.3 km/h 78% 0 mm 0.0 W/m2
02:07 -19.5 °C -22.4 °C 1041.2 hPa NW 6.4 km/h 6.4 km/h 78% 0 mm 0.0 W/m2
02:13 -19.6 °C -22.3 °C 1041.2 hPa NW 6.4 km/h 6.4 km/h 79% 0 mm 0.0 W/m2
02:18 -19.6 °C -22.3 °C 1041.2 hPa WNW 11.1 km/h 11.1 km/h 79% 0 mm 0.0 W/m2
02:20 -19.6 °C -22.3 °C 1041.2 hPa WNW 9.3 km/h 9.3 km/h 79% 0 mm 0.0 W/m2
02:25 -19.7 °C -22.4 °C 1041.2 hPa WNW 6.4 km/h 6.4 km/h 79% 0 mm 0.0 W/m2
02:26 -19.7 °C -22.4 °C 1041.2 hPa WNW 6.4 km/h 6.4 km/h 79% 0 mm 0.0 W/m2
02:31 -19.7 °C -22.4 °C 1041.2 hPa WNW 9.3 km/h 9.3 km/h 79% 0 mm 0.0 W/m2
02:36 -19.7 °C -22.4 °C 1041.2 hPa WNW 7.4 km/h 7.4 km/h 79% 0 mm 0.0 W/m2
02:39 -19.7 °C -22.4 °C 1041.2 hPa WNW 11.1 km/h 11.1 km/h 79% 0 mm 0.0 W/m2
02:44 -19.7 °C -22.4 °C 1041.2 hPa WNW 11.1 km/h 11.1 km/h 79% 0 mm 0.0 W/m2
02:45 -19.7 °C -22.4 °C 1041.2 hPa WNW 9.3 km/h 9.3 km/h 79% 0 mm 0.0 W/m2
02:47 -19.7 °C -22.4 °C 1041.2 hPa WNW 11.1 km/h 11.1 km/h 79% 0 mm 0.0 W/m2
02:52 -19.7 °C -22.4 °C 1041.2 hPa WNW 11.3 km/h 11.3 km/h 79% 0 mm 0.0 W/m2
02:53 -19.7 °C -22.4 °C 1041.2 hPa NW 11.1 km/h 11.1 km/h 79% 0 mm 0.0 W/m2
02:57 -19.7 °C -22.4 °C 1041.2 hPa WNW 9.3 km/h 9.3 km/h 79% 0 mm 0.0 W/m2
02:59 -19.7 °C -22.4 °C 1041.2 hPa WNW 5.6 km/h 5.6 km/h 79% 0 mm 0.0 W/m2
03:04 -19.7 °C -22.4 °C 1041.2 hPa WNW 7.4 km/h 7.4 km/h 79% 0 mm 0.0 W/m2
03:05 -19.7 °C -22.4 °C 1041.2 hPa WNW 7.4 km/h 7.4 km/h 79% 0 mm 0.0 W/m2
03:06 -19.7 °C -22.5 °C 1041.2 hPa WNW 5.6 km/h 5.6 km/h 78% 0 mm 0.0 W/m2
03:11 -19.7 °C -22.6 °C 1041.2 hPa NW 7.4 km/h 7.4 km/h 78% 0 mm 0.0 W/m2
03:16 -19.8 °C -22.6 °C 1041.2 hPa WNW 13 km/h 13 km/h 78% 0 mm 0.0 W/m2
03:17 -19.8 °C -22.6 °C 1041.2 hPa WNW 13 km/h 13 km/h 78% 0 mm 0.0 W/m2
03:18 -19.8 °C -22.6 °C 1041.2 hPa WNW 9.3 km/h 9.3 km/h 78% 0 mm 0.0 W/m2
03:22 -19.9 °C -22.7 °C 1041.2 hPa WNW 9.3 km/h 9.3 km/h 78% 0 mm 0.0 W/m2
03:27 -19.9 °C -22.8 °C 1041.2 hPa NW 11.1 km/h 11.1 km/h 78% 0 mm 0.0 W/m2
03:28 -19.9 °C -22.8 °C 1041.2 hPa NW 11.1 km/h 11.1 km/h 78% 0 mm 0.0 W/m2
03:29 -19.9 °C -22.8 °C 1041.2 hPa WNW 13 km/h 13 km/h 78% 0 mm 0.0 W/m2
03:34 -20 °C -22.8 °C 1041.5 hPa WNW 13 km/h 13 km/h 78% 0 mm 0.0 W/m2
03:36 -20 °C -22.8 °C 1041.5 hPa WNW 9.3 km/h 9.3 km/h 78% 0 mm 0.0 W/m2
03:39 -20.1 °C -22.9 °C 1041.5 hPa WNW 11.1 km/h 11.1 km/h 78% 0 mm 0.0 W/m2
03:44 -20.1 °C -22.9 °C 1041.2 hPa WNW 9.3 km/h 9.3 km/h 78% 0 mm 0.0 W/m2
03:45 -20.2 °C -23 °C 1041.2 hPa WNW 9.3 km/h 9.3 km/h 78% 0 mm 0.0 W/m2
03:50 -20.2 °C -23.1 °C 1041.2 hPa WNW 9.3 km/h 9.3 km/h 78% 0 mm 0.0 W/m2
03:54 -20.2 °C -23.1 °C 1041.2 hPa NW 5.6 km/h 5.6 km/h 78% 0 mm 0.0 W/m2
03:55 -20.2 °C -23.1 °C 1041.2 hPa NW 5.6 km/h 5.6 km/h 78% 0 mm 0.0 W/m2
04:00 -20.3 °C -23.2 °C 1041.2 hPa NW 11.1 km/h 11.1 km/h 78% 0 mm 0.0 W/m2
04:01 -20.3 °C -23.2 °C 1041.2 hPa WNW 9.3 km/h 9.3 km/h 78% 0 mm 0.0 W/m2
04:06 -20.4 °C -23.2 °C 1041.2 hPa WNW 6.4 km/h 6.4 km/h 78% 0 mm 0.0 W/m2
04:08 -20.4 °C -23.2 °C 1041.5 hPa WNW 6.4 km/h 6.4 km/h 78% 0 mm 0.0 W/m2
04:13 -20.5 °C -23.3 °C 1041.5 hPa WNW 9.3 km/h 9.3 km/h 78% 0 mm 0.0 W/m2
04:14 -20.5 °C -23.3 °C 1041.5 hPa WNW 9.3 km/h 9.3 km/h 78% 0 mm 0.0 W/m2
04:17 -20.5 °C -23.2 °C 1041.5 hPa WNW 11.1 km/h 11.1 km/h 79% 0 mm 0.0 W/m2
04:22 -20.6 °C -23.3 °C 1041.5 hPa WNW 5.6 km/h 5.6 km/h 79% 0 mm 0.0 W/m2
04:23 -20.6 °C -23.3 °C 1041.5 hPa WNW 8 km/h 8 km/h 79% 0 mm 0.0 W/m2
04:28 -20.7 °C -23.3 °C 1041.5 hPa WNW 9.3 km/h 9.3 km/h 79% 0 mm 0.0 W/m2
04:32 -20.7 °C -23.4 °C 1041.5 hPa WNW 7.4 km/h 7.4 km/h 79% 0 mm 0.0 W/m2
04:33 -20.7 °C -23.4 °C 1041.5 hPa WNW 11.1 km/h 11.1 km/h 79% 0 mm 0.0 W/m2
04:38 -20.7 °C -23.4 °C 1041.5 hPa WNW 9.3 km/h 9.3 km/h 79% 0 mm 0.0 W/m2
04:41 -20.8 °C -23.4 °C 1041.5 hPa WNW 9.3 km/h 9.3 km/h 79% 0 mm 0.0 W/m2
04:44 -20.8 °C -23.4 °C 1041.5 hPa WNW 9.3 km/h 9.3 km/h 79% 0 mm 0.0 W/m2
04:49 -20.8 °C -23.4 °C 1041.9 hPa WNW 11.1 km/h 11.1 km/h 79% 0 mm 0.0 W/m2
04:53 -20.8 °C -23.5 °C 1041.9 hPa WNW 13 km/h 13 km/h 79% 0 mm 0.0 W/m2
04:56 -20.8 °C -23.5 °C 1041.9 hPa WNW 11.1 km/h 11.1 km/h 79% 0 mm 0.0 W/m2
05:01 -20.8 °C -23.5 °C 1041.9 hPa WNW 7.4 km/h 7.4 km/h 79% 0 mm 0.0 W/m2
05:06 -20.8 °C -23.5 °C 1041.9 hPa WNW 9.3 km/h 9.3 km/h 79% 0 mm 0.0 W/m2
05:07 -20.8 °C -23.5 °C 1041.9 hPa WNW 11.1 km/h 11.1 km/h 79% 0 mm 0.0 W/m2
05:08 -20.9 °C -23.6 °C 1041.9 hPa WNW 7.4 km/h 7.4 km/h 79% 0 mm 0.0 W/m2
05:13 -20.9 °C -23.6 °C 1041.9 hPa West 9.7 km/h 9.7 km/h 79% 0 mm 0.0 W/m2
05:14 -20.9 °C -23.6 °C 1041.9 hPa WNW 9.3 km/h 9.3 km/h 79% 0 mm 0.0 W/m2
05:19 -20.9 °C -23.5 °C 1041.9 hPa West 9.7 km/h 9.7 km/h 80% 0 mm 0.0 W/m2
05:20 -21 °C -23.6 °C 1041.9 hPa WNW 11.1 km/h 11.1 km/h 80% 0 mm 0.0 W/m2
05:25 -21 °C -23.6 °C 1041.9 hPa WNW 9.3 km/h 9.3 km/h 80% 0 mm 0.0 W/m2
05:30 -21.1 °C -23.6 °C 1041.9 hPa WNW 9.7 km/h 9.7 km/h 80% 0 mm 0.0 W/m2
05:31 -21.1 °C -23.6 °C 1042.2 hPa WNW 9.3 km/h 9.3 km/h 80% 0 mm 0.0 W/m2
05:36 -21.1 °C -23.6 °C 1042.2 hPa WNW 11.1 km/h 11.1 km/h 80% 0 mm 0.0 W/m2
05:37 -21.1 °C -23.6 °C 1041.9 hPa WNW 11.1 km/h 11.1 km/h 80% 0 mm 0.0 W/m2
05:41 -21.1 °C -23.7 °C 1041.9 hPa WNW 9.7 km/h 9.7 km/h 80% 0 mm 0.0 W/m2
05:44 -21.1 °C -23.7 °C 1042.2 hPa WNW 6.4 km/h 6.4 km/h 80% 0 mm 0.0 W/m2
05:47 -21.2 °C -23.7 °C 1042.2 hPa WNW 9.3 km/h 9.3 km/h 80% 0 mm 0.0 W/m2
05:51 -21.2 °C -23.7 °C 1042.2 hPa WNW 7.4 km/h 7.4 km/h 80% 0 mm 0.0 W/m2
05:56 -21.2 °C -23.8 °C 1042.2 hPa WNW 9.3 km/h 9.3 km/h 80% 0 mm 0.0 W/m2
06:01 -21.2 °C -23.8 °C 1042.2 hPa WNW 9.3 km/h 9.3 km/h 80% 0 mm 0.0 W/m2
06:04 -21.2 °C -23.8 °C 1042.2 hPa WNW 7.4 km/h 7.4 km/h 80% 0 mm 0.0 W/m2
06:09 -21.2 °C -23.6 °C 1042.5 hPa WNW 9.3 km/h 9.3 km/h 81% 0 mm 0.0 W/m2
06:10 -21.2 °C -23.6 °C 1042.5 hPa WNW 7.4 km/h 7.4 km/h 81% 0 mm 0.0 W/m2
06:12 -21.2 °C -23.8 °C 1042.5 hPa WNW 7.4 km/h 7.4 km/h 80% 0 mm 0.0 W/m2
06:15 -21.3 °C -23.8 °C 1042.5 hPa WNW 7.4 km/h 7.4 km/h 80% 0 mm 0.0 W/m2
06:19 -21.3 °C -23.9 °C 1042.5 hPa WNW 9.3 km/h 9.3 km/h 80% 0 mm 0.0 W/m2
06:22 -21.3 °C -23.9 °C 1042.5 hPa WNW 5.6 km/h 5.6 km/h 80% 0 mm 0.0 W/m2
06:27 -21.4 °C -23.9 °C 1042.5 hPa WNW 5.6 km/h 5.6 km/h 80% 0 mm 0.0 W/m2
06:28 -21.4 °C -23.9 °C 1042.5 hPa WNW 5.6 km/h 5.6 km/h 80% 0 mm 0.0 W/m2
06:32 -21.4 °C -23.9 °C 1042.9 hPa WNW 7.4 km/h 7.4 km/h 80% 0 mm 0.0 W/m2
06:33 -21.4 °C -23.9 °C 1042.9 hPa WNW 7.4 km/h 7.4 km/h 80% 0 mm 0.0 W/m2
06:38 -21.4 °C -23.9 °C 1042.9 hPa WNW 5.6 km/h 5.6 km/h 80% 0 mm 0.0 W/m2
06:39 -21.4 °C -23.9 °C 1042.9 hPa WNW 5.6 km/h 5.6 km/h 80% 0 mm 0.0 W/m2
06:44 -21.4 °C -24 °C 1042.9 hPa WNW 5.6 km/h 5.6 km/h 80% 0 mm 0.0 W/m2
06:45 -21.4 °C -24 °C 1042.9 hPa WNW 5.6 km/h 5.6 km/h 80% 0 mm 0.0 W/m2
06:50 -21.5 °C -23.9 °C 1042.9 hPa WNW 7.4 km/h 7.4 km/h 81% 0 mm 0.0 W/m2
06:54 -21.5 °C -23.9 °C 1042.9 hPa WNW 5.6 km/h 5.6 km/h 81% 0 mm 0.0 W/m2
06:55 -21.5 °C -23.9 °C 1042.9 hPa WNW 5.6 km/h 5.6 km/h 81% 0 mm 0.0 W/m2
07:00 -21.5 °C -23.9 °C 1042.9 hPa WNW 7.4 km/h 7.4 km/h 81% 0 mm 0.0 W/m2
07:02 -21.5 °C -23.9 °C 1042.9 hPa West 3.7 km/h 3.7 km/h 81% 0 mm 0.0 W/m2
07:07 -21.4 °C -23.8 °C 1042.9 hPa WNW 6.4 km/h 6.4 km/h 81% 0 mm 0.0 W/m2
07:10 -21.5 °C -23.9 °C 1042.9 hPa WNW 7.4 km/h 7.4 km/h 81% 0 mm 0.0 W/m2
07:15 -21.5 °C -23.9 °C 1042.9 hPa WNW 9.3 km/h 9.3 km/h 81% 0 mm 0.0 W/m2
07:16 -21.5 °C -23.9 °C 1042.9 hPa WNW 9.3 km/h 9.3 km/h 81% 0 mm 5.0 W/m2
07:17 -21.5 °C -23.9 °C 1042.9 hPa WNW 9.3 km/h 9.3 km/h 81% 0 mm 5.0 W/m2
07:22 -21.4 °C -23.8 °C 1043.2 hPa WNW 11.1 km/h 11.1 km/h 81% 0 mm 7.0 W/m2
07:27 -21.3 °C -23.7 °C 1042.9 hPa WNW 11.1 km/h 11.1 km/h 81% 0 mm 11.0 W/m2
07:28 -21.3 °C -23.7 °C 1042.9 hPa WNW 11.1 km/h 11.1 km/h 81% 0 mm 11.0 W/m2
07:30 -21.3 °C -23.6 °C 1042.9 hPa WNW 9.7 km/h 9.7 km/h 82% 0 mm 11.0 W/m2
07:33 -21.3 °C -23.7 °C 1043.2 hPa WNW 11.1 km/h 11.1 km/h 81% 0 mm 12.0 W/m2
07:49 -21 °C -23.4 °C 1043.2 hPa WNW 9.7 km/h 9.7 km/h 81% 0 mm 39.0 W/m2
07:51 -20.9 °C -23.3 °C 1043.2 hPa WNW 9.3 km/h 9.3 km/h 81% 0 mm 42.0 W/m2
07:54 -20.9 °C -23.3 °C 1043.2 hPa West 11.1 km/h 11.1 km/h 81% 0 mm 51.0 W/m2
07:59 -20.8 °C -23.2 °C 1043.2 hPa WNW 9.3 km/h 9.3 km/h 81% 0 mm 63.0 W/m2
08:00 -20.8 °C -23.2 °C 1043.2 hPa West 11.1 km/h 11.1 km/h 81% 0 mm 65.0 W/m2
08:01 -20.8 °C -23.2 °C 1043.2 hPa WNW 11.1 km/h 11.1 km/h 81% 0 mm 67.0 W/m2
08:06 -20.7 °C -23.2 °C 1043.2 hPa WNW 7.4 km/h 7.4 km/h 80% 0 mm 79.0 W/m2
08:07 -20.7 °C -23.2 °C 1043.2 hPa WNW 7.4 km/h 7.4 km/h 80% 0 mm 81.0 W/m2
08:12 -20.6 °C -23.1 °C 1043.2 hPa WNW 9.7 km/h 9.7 km/h 80% 0 mm 95.0 W/m2
08:17 -20.4 °C -23 °C 1043.6 hPa WNW 7.4 km/h 7.9 km/h 80% 0 mm 109.0 W/m2
08:18 -20.4 °C -23 °C 1043.6 hPa WNW 13 km/h 13 km/h 80% 0 mm 111.0 W/m2
08:23 -20.3 °C -23.1 °C 1043.6 hPa WNW 11.1 km/h 11.1 km/h 79% 0 mm 127.0 W/m2
08:26 -20.2 °C -22.9 °C 1043.6 hPa NW 14.8 km/h 14.8 km/h 79% 0 mm 137.0 W/m2
08:28 -20.2 °C -22.9 °C 1043.6 hPa WNW 14.8 km/h 14.8 km/h 79% 0 mm 142.0 W/m2
08:33 -20 °C -22.7 °C 1043.6 hPa WNW 14.8 km/h 14.8 km/h 79% 0 mm 156.0 W/m2
08:34 -19.9 °C -22.7 °C 1043.6 hPa West 16.7 km/h 16.7 km/h 79% 0 mm 160.0 W/m2
08:35 -19.9 °C -22.7 °C 1043.6 hPa NW 11.1 km/h 11.1 km/h 79% 0 mm 162.0 W/m2
08:40 -19.8 °C -22.7 °C 1043.6 hPa WNW 9.3 km/h 9.3 km/h 78% 0 mm 178.0 W/m2
08:41 -19.8 °C -22.7 °C 1043.6 hPa WNW 9.3 km/h 9.3 km/h 78% 0 mm 178.0 W/m2
08:44 -19.8 °C -22.6 °C 1043.6 hPa NW 13 km/h 13 km/h 78% 0 mm 188.0 W/m2
08:46 -19.8 °C -22.6 °C 1043.6 hPa NW 14.5 km/h 14.5 km/h 78% 0 mm 195.0 W/m2
08:50 -19.7 °C -22.7 °C 1043.6 hPa NW 16.7 km/h 16.7 km/h 77% 0 mm 206.0 W/m2
08:51 -19.7 °C -22.7 °C 1043.6 hPa NW 13 km/h 13 km/h 77% 0 mm 211.0 W/m2
08:56 -19.6 °C -22.6 °C 1043.6 hPa NW 14.8 km/h 14.8 km/h 77% 0 mm 223.0 W/m2
08:58 -19.6 °C -22.6 °C 1043.6 hPa NW 11.1 km/h 11.1 km/h 77% 0 mm 229.0 W/m2
09:03 -19.6 °C -22.6 °C 1043.6 hPa WNW 14.8 km/h 14.8 km/h 77% 0 mm 243.0 W/m2
09:04 -19.6 °C -22.6 °C 1043.6 hPa NW 14.8 km/h 14.8 km/h 77% 0 mm 244.0 W/m2
09:05 -19.5 °C -22.5 °C 1043.9 hPa NW 14.8 km/h 14.8 km/h 77% 0 mm 250.0 W/m2
09:10 -19.4 °C -22.6 °C 1043.9 hPa NW 16.7 km/h 16.7 km/h 76% 0 mm 262.0 W/m2
09:11 -19.4 °C -22.4 °C 1043.9 hPa NW 16.7 km/h 16.7 km/h 77% 0 mm 262.0 W/m2
09:13 -19.4 °C -22.6 °C 1043.9 hPa WNW 13 km/h 13 km/h 76% 0 mm 269.0 W/m2
09:18 -19.3 °C -22.4 °C 1043.9 hPa NW 9.3 km/h 9.3 km/h 76% 0 mm 279.0 W/m2
09:21 -19.2 °C -22.4 °C 1044.2 hPa NW 13 km/h 13 km/h 76% 0 mm 287.0 W/m2
09:25 -19.2 °C -22.3 °C 1044.2 hPa NW 14.8 km/h 14.8 km/h 76% 0 mm 295.0 W/m2
09:29 -19.1 °C -22.4 °C 1044.2 hPa NW 16.7 km/h 16.7 km/h 75% 0 mm 302.0 W/m2
09:31 -19.1 °C -22.4 °C 1044.6 hPa NW 11.1 km/h 11.1 km/h 75% 0 mm 309.0 W/m2
09:36 -18.9 °C -22.3 °C 1044.6 hPa NW 16.7 km/h 16.7 km/h 75% 0 mm 318.0 W/m2
09:38 -18.9 °C -22.3 °C 1044.6 hPa NW 13 km/h 13 km/h 75% 0 mm 322.0 W/m2
09:39 -18.9 °C -22.2 °C 1044.6 hPa NW 16.7 km/h 16.7 km/h 75% 0 mm 323.0 W/m2
09:44 -18.8 °C -22.1 °C 1044.6 hPa NW 18.5 km/h 18.5 km/h 75% 0 mm 332.0 W/m2
09:45 -18.7 °C -22.1 °C 1044.6 hPa NW 16.7 km/h 16.7 km/h 75% 0 mm 336.0 W/m2
09:47 -18.7 °C -22.1 °C 1044.9 hPa NW 16.7 km/h 16.7 km/h 75% 0 mm 339.0 W/m2
09:50 -18.7 °C -22.2 °C 1044.6 hPa WNW 14.8 km/h 14.8 km/h 74% 0 mm 345.0 W/m2
09:55 -18.5 °C -22 °C 1044.6 hPa NW 14.8 km/h 14.8 km/h 74% 0 mm 355.0 W/m2
09:57 -18.5 °C -22 °C 1044.6 hPa NW 14.8 km/h 14.8 km/h 74% 0 mm 359.0 W/m2
10:02 -18.4 °C -21.9 °C 1044.6 hPa NW 18.5 km/h 18.5 km/h 74% 0 mm 367.0 W/m2
10:03 -18.3 °C -21.8 °C 1044.6 hPa NW 18.5 km/h 18.5 km/h 74% 0 mm 367.0 W/m2
10:05 -18.3 °C -21.8 °C 1044.6 hPa NW 13 km/h 13 km/h 74% 0 mm 371.0 W/m2
10:09 -18.3 °C -21.8 °C 1044.6 hPa NW 16.7 km/h 16.7 km/h 74% 0 mm 378.0 W/m2
10:13 -18.2 °C -21.7 °C 1044.6 hPa NW 14.8 km/h 14.8 km/h 74% 0 mm 385.0 W/m2
10:14 -18.2 °C -21.7 °C 1044.9 hPa NW 13 km/h 13 km/h 74% 0 mm 385.0 W/m2
10:19 -18.1 °C -21.6 °C 1044.6 hPa NW 14.8 km/h 14.8 km/h 74% 0 mm 394.0 W/m2
10:20 -18.1 °C -21.6 °C 1044.6 hPa NW 18.5 km/h 18.5 km/h 74% 0 mm 396.0 W/m2
10:21 -18.1 °C -21.6 °C 1044.9 hPa NW 18.5 km/h 18.5 km/h 74% 0 mm 396.0 W/m2
10:25 -18 °C -21.5 °C 1044.9 hPa North 14.8 km/h 14.8 km/h 74% 0 mm 403.0 W/m2
10:27 -17.9 °C -21.4 °C 1044.9 hPa NW 16.7 km/h 16.7 km/h 74% 0 mm 404.0 W/m2
10:31 -17.8 °C -21.3 °C 1044.6 hPa NW 16.7 km/h 16.7 km/h 74% 0 mm 410.0 W/m2
10:36 -17.7 °C -21.4 °C 1044.6 hPa NW 18.5 km/h 18.5 km/h 73% 0 mm 417.0 W/m2
10:37 -17.7 °C -21.4 °C 1044.6 hPa NW 14.8 km/h 14.8 km/h 73% 0 mm 417.0 W/m2
10:41 -17.6 °C -21.3 °C 1044.6 hPa WNW 14.8 km/h 14.8 km/h 73% 0 mm 420.0 W/m2
10:43 -17.6 °C -21.4 °C 1044.6 hPa NW 13 km/h 13 km/h 72% 0 mm 424.0 W/m2
10:48 -17.3 °C -20.9 °C 1044.6 hPa NW 13 km/h 13 km/h 73% 0 mm 429.0 W/m2
10:53 -17.2 °C -21.1 °C 1044.6 hPa NW 11.1 km/h 11.1 km/h 72% 0 mm 434.0 W/m2
10:57 -17.1 °C -20.9 °C 1044.6 hPa NW 14.8 km/h 14.8 km/h 72% 0 mm 436.0 W/m2
10:59 -17.1 °C -20.9 °C 1044.6 hPa NW 14.5 km/h 14.5 km/h 72% 0 mm 439.0 W/m2
11:04 -17.1 °C -21.1 °C 1044.6 hPa WNW 13 km/h 13 km/h 71% 0 mm 443.0 W/m2
11:09 -17.1 °C -21.2 °C 1044.6 hPa NW 14.8 km/h 14.8 km/h 70% 0 mm 446.0 W/m2
11:11 -17.1 °C -21.2 °C 1044.6 hPa NW 14.8 km/h 14.8 km/h 70% 0 mm 446.0 W/m2
11:14 -17 °C -21 °C 1044.6 hPa NW 14.8 km/h 14.8 km/h 71% 0 mm 448.0 W/m2
11:17 -16.9 °C -20.9 °C 1044.6 hPa NW 11.3 km/h 11.3 km/h 71% 0 mm 448.0 W/m2
11:22 -16.8 °C -21 °C 1044.6 hPa NW 18.5 km/h 18.5 km/h 70% 0 mm 454.0 W/m2
11:23 -16.8 °C -20.9 °C 1044.2 hPa NW 18.5 km/h 18.5 km/h 70% 0 mm 454.0 W/m2
11:28 -16.8 °C -20.9 °C 1044.2 hPa NW 16.7 km/h 16.7 km/h 70% 0 mm 455.0 W/m2
11:30 -16.8 °C -20.9 °C 1044.2 hPa NW 16.7 km/h 16.7 km/h 70% 0 mm 457.0 W/m2
11:35 -16.7 °C -20.9 °C 1044.2 hPa NW 14.8 km/h 14.8 km/h 70% 0 mm 459.0 W/m2
11:36 -16.7 °C -20.9 °C 1044.2 hPa WNW 16.7 km/h 16.7 km/h 70% 0 mm 459.0 W/m2
11:40 -16.6 °C -20.8 °C 1043.9 hPa NW 11.1 km/h 11.1 km/h 70% 0 mm 461.0 W/m2
11:43 -16.5 °C -20.7 °C 1043.9 hPa NW 14.8 km/h 14.8 km/h 70% 0 mm 459.0 W/m2
11:47 -16.4 °C -20.5 °C 1043.9 hPa NNW 13 km/h 13 km/h 71% 0 mm 461.0 W/m2
11:52 -16.4 °C -20.7 °C 1043.9 hPa NW 16.7 km/h 16.7 km/h 70% 0 mm 461.0 W/m2
11:57 -16.3 °C -20.6 °C 1043.9 hPa NW 18.5 km/h 18.5 km/h 70% 0 mm 461.0 W/m2
11:59 -16.3 °C -20.6 °C 1043.9 hPa NW 16.7 km/h 16.7 km/h 70% 0 mm 462.0 W/m2
12:00 -16.3 °C -20.6 °C 1043.9 hPa NW 16.7 km/h 16.7 km/h 70% 0 mm 461.0 W/m2
12:05 -16.3 °C -20.5 °C 1043.9 hPa WNW 11.3 km/h 11.3 km/h 70% 0 mm 461.0 W/m2
12:09 -16.3 °C -20.5 °C 1043.9 hPa WNW 11.1 km/h 11.3 km/h 70% 0 mm 461.0 W/m2
12:10 -16.3 °C -20.5 °C 1043.9 hPa WNW 11.3 km/h 11.3 km/h 70% 0 mm 461.0 W/m2
12:15 -16.2 °C -20.6 °C 1044.2 hPa WNW 14.8 km/h 14.8 km/h 69% 0 mm 459.0 W/m2
12:18 -16.1 °C -20.3 °C 1043.9 hPa WNW 11.1 km/h 11.1 km/h 70% 0 mm 455.0 W/m2
12:20 -15.9 °C -20.2 °C 1043.9 hPa WNW 7.4 km/h 7.4 km/h 70% 0 mm 454.0 W/m2
12:25 -15.8 °C -20.2 °C 1043.9 hPa WNW 11.1 km/h 11.1 km/h 69% 0 mm 450.0 W/m2
12:26 -15.8 °C -20.2 °C 1043.9 hPa WNW 5.6 km/h 5.6 km/h 69% 0 mm 454.0 W/m2
12:31 -15.6 °C -20.2 °C 1044.2 hPa West 14.5 km/h 14.5 km/h 68% 0 mm 448.0 W/m2
12:32 -15.6 °C -20.2 °C 1044.2 hPa WNW 14.8 km/h 14.8 km/h 68% 0 mm 450.0 W/m2
12:33 -15.6 °C -20.3 °C 1044.2 hPa WNW 18.5 km/h 18.5 km/h 67% 0 mm 446.0 W/m2
12:38 -15.6 °C -20.3 °C 1044.2 hPa NW 13 km/h 13 km/h 67% 0 mm 443.0 W/m2
12:39 -15.6 °C -20.3 °C 1044.2 hPa NW 16.1 km/h 16.1 km/h 67% 0 mm 443.0 W/m2
12:44 -15.5 °C -20.1 °C 1044.2 hPa NW 18.5 km/h 18.5 km/h 68% 0 mm 439.0 W/m2
12:45 -15.5 °C -20.1 °C 1044.2 hPa NW 18.5 km/h 18.5 km/h 68% 0 mm 439.0 W/m2
12:50 -15.4 °C -20 °C 1044.2 hPa WNW 16.7 km/h 16.7 km/h 68% 0 mm 436.0 W/m2
12:51 -15.4 °C -20 °C 1044.2 hPa WNW 18.5 km/h 18.5 km/h 68% 0 mm 436.0 W/m2
12:52 -15.4 °C -20.2 °C 1044.2 hPa WNW 16.7 km/h 16.7 km/h 67% 0 mm 432.0 W/m2
12:56 -15.4 °C -20.4 °C 1044.2 hPa NW 16.7 km/h 16.7 km/h 66% 0 mm 431.0 W/m2
13:01 -15.5 °C -20.4 °C 1043.9 hPa WNW 16.7 km/h 16.7 km/h 66% 0 mm 425.0 W/m2
13:03 -15.4 °C -20.4 °C 1043.9 hPa WNW 11.1 km/h 11.1 km/h 66% 0 mm 424.0 W/m2
13:04 -15.4 °C -20.4 °C 1043.9 hPa WNW 16.7 km/h 16.7 km/h 66% 0 mm 424.0 W/m2
13:09 -15.4 °C -20.3 °C 1043.9 hPa WNW 16.7 km/h 16.7 km/h 66% 0 mm 417.0 W/m2
13:10 -15.4 °C -20.3 °C 1043.9 hPa WNW 16.7 km/h 16.7 km/h 66% 0 mm 417.0 W/m2
13:12 -15.3 °C -20.3 °C 1043.9 hPa WNW 16.7 km/h 16.7 km/h 66% 0 mm 413.0 W/m2
13:17 -15.4 °C -20.5 °C 1044.2 hPa West 16.7 km/h 16.7 km/h 65% 0 mm 408.0 W/m2
13:19 -15.3 °C -20.4 °C 1043.9 hPa NW 16.7 km/h 16.7 km/h 65% 0 mm 406.0 W/m2
13:24 -15.4 °C -20.5 °C 1043.9 hPa WNW 16.7 km/h 16.7 km/h 65% 0 mm 403.0 W/m2
13:26 -15.3 °C -20.4 °C 1043.9 hPa WNW 16.7 km/h 16.7 km/h 65% 0 mm 396.0 W/m2
13:29 -15.3 °C -20.4 °C 1043.9 hPa NW 14.8 km/h 14.8 km/h 65% 0 mm 392.0 W/m2
13:34 -15.3 °C -20.6 °C 1043.9 hPa NNW 18.5 km/h 18.5 km/h 64% 0 mm 385.0 W/m2
13:35 -15.3 °C -20.6 °C 1043.9 hPa WNW 16.7 km/h 16.7 km/h 64% 0 mm 383.0 W/m2
13:40 -15.2 °C -20.4 °C 1043.9 hPa NW 18.5 km/h 18.5 km/h 64% 0 mm 376.0 W/m2
13:41 -15.2 °C -20.4 °C 1043.9 hPa WNW 13 km/h 13 km/h 64% 0 mm 374.0 W/m2
13:46 -15.2 °C -20.5 °C 1043.6 hPa NW 16.7 km/h 16.7 km/h 64% 0 mm 367.0 W/m2
13:48 -15.2 °C -20.7 °C 1043.6 hPa NW 13 km/h 13 km/h 63% 0 mm 364.0 W/m2
13:53 -15.2 °C -20.7 °C 1043.6 hPa WNW 18.5 km/h 18.5 km/h 63% 0 mm 357.0 W/m2
13:54 -15.2 °C -20.6 °C 1043.6 hPa WNW 18.5 km/h 18.5 km/h 63% 0 mm 355.0 W/m2
13:59 -15.2 °C -20.7 °C 1043.6 hPa WNW 18.5 km/h 18.5 km/h 63% 0 mm 345.0 W/m2
14:00 -15.2 °C -20.7 °C 1043.6 hPa WNW 18.5 km/h 18.5 km/h 63% 0 mm 341.0 W/m2
14:04 -15.2 °C -20.7 °C 1043.6 hPa NW 16.7 km/h 16.7 km/h 63% 0 mm 332.0 W/m2
14:06 -15.2 °C -20.7 °C 1043.2 hPa NW 14.8 km/h 14.8 km/h 63% 0 mm 330.0 W/m2
14:09 -15.2 °C -20.7 °C 1043.2 hPa NW 18.5 km/h 18.5 km/h 63% 0 mm 308.0 W/m2
14:11 -15.3 °C -20.7 °C 1043.2 hPa NW 13 km/h 13 km/h 63% 0 mm 302.0 W/m2
14:16 -15.3 °C -20.6 °C 1043.2 hPa NW 9.3 km/h 9.3 km/h 64% 0 mm 304.0 W/m2
14:21 -15.2 °C -20.4 °C 1043.2 hPa NW 16.7 km/h 16.7 km/h 64% 0 mm 274.0 W/m2
14:23 -15.2 °C -20.6 °C 1043.2 hPa WNW 16.7 km/h 16.7 km/h 63% 0 mm 274.0 W/m2
14:26 -15.2 °C -20.7 °C 1043.2 hPa NW 13 km/h 13 km/h 63% 0 mm 294.0 W/m2
14:31 -15.2 °C -20.5 °C 1043.2 hPa NNW 16.7 km/h 16.7 km/h 64% 0 mm 279.0 W/m2
14:32 -15.2 °C -20.4 °C 1043.2 hPa NNW 16.7 km/h 16.7 km/h 64% 0 mm 279.0 W/m2
14:37 -15.2 °C -20.5 °C 1043.2 hPa NW 14.8 km/h 14.8 km/h 64% 0 mm 271.0 W/m2
14:42 -15.2 °C -20.3 °C 1042.9 hPa NW 13 km/h 13 km/h 65% 0 mm 243.0 W/m2
14:43 -15.2 °C -20.3 °C 1042.9 hPa NNW 13 km/h 13 km/h 65% 0 mm 239.0 W/m2
14:48 -15.2 °C -20.2 °C 1043.2 hPa WNW 11.1 km/h 11.1 km/h 66% 0 mm 176.0 W/m2
14:50 -15.3 °C -20.4 °C 1042.9 hPa North 5.6 km/h 5.6 km/h 65% 0 mm 153.0 W/m2
14:55 -15.3 °C -20.4 °C 1042.9 hPa NNW 7.4 km/h 7.4 km/h 65% 0 mm 171.0 W/m2
14:57 -15.3 °C -20.2 °C 1042.9 hPa NW 9.3 km/h 9.3 km/h 66% 0 mm 153.0 W/m2
15:02 -15.3 °C -20.3 °C 1042.9 hPa NW 13 km/h 13 km/h 66% 0 mm 114.0 W/m2
15:03 -15.4 °C -20.3 °C 1042.9 hPa NW 13 km/h 13 km/h 66% 0 mm 114.0 W/m2
15:08 -15.4 °C -20.4 °C 1042.9 hPa WNW 1.9 km/h 1.9 km/h 66% 0 mm 84.0 W/m2
15:09 -15.4 °C -20.2 °C 1042.9 hPa WNW 3.7 km/h 3.7 km/h 67% 0 mm 98.0 W/m2
15:12 -15.4 °C -20.2 °C 1042.9 hPa WNW 5.6 km/h 5.6 km/h 67% 0 mm 88.0 W/m2
15:14 -15.5 °C -20.2 °C 1042.9 hPa WNW 5.6 km/h 5.6 km/h 67% 0 mm 90.0 W/m2
15:19 -15.6 °C -20.3 °C 1042.9 hPa NW 9.3 km/h 9.3 km/h 67% 0 mm 81.0 W/m2
15:21 -15.6 °C -20.3 °C 1042.9 hPa NNW 6.4 km/h 6.4 km/h 67% 0 mm 81.0 W/m2
15:22 -15.6 °C -20.3 °C 1042.9 hPa NW 5.6 km/h 5.6 km/h 67% 0 mm 81.0 W/m2
15:27 -15.6 °C -20.3 °C 1042.9 hPa NW 5.6 km/h 5.6 km/h 67% 0 mm 81.0 W/m2
15:28 -15.6 °C -20.3 °C 1042.9 hPa NW 5.6 km/h 5.6 km/h 67% 0 mm 83.0 W/m2
15:32 -15.6 °C -20.3 °C 1042.9 hPa NW 5.6 km/h 5.6 km/h 67% 0 mm 63.0 W/m2
15:37 -15.7 °C -20.4 °C 1043.2 hPa WNW 5.6 km/h 5.6 km/h 67% 0 mm 49.0 W/m2
15:39 -15.7 °C -20.4 °C 1043.2 hPa WNW 3.7 km/h 3.7 km/h 67% 0 mm 46.0 W/m2
15:43 -15.7 °C -20.4 °C 1043.2 hPa WNW 3.7 km/h 3.7 km/h 67% 0 mm 37.0 W/m2
15:48 -15.8 °C -20.5 °C 1043.2 hPa WNW 1.9 km/h 1.9 km/h 67% 0 mm 33.0 W/m2
15:53 -15.8 °C -20.4 °C 1043.2 hPa WNW 5.6 km/h 5.6 km/h 68% 0 mm 30.0 W/m2
15:54 -15.9 °C -20.4 °C 1043.2 hPa WNW 5.6 km/h 5.6 km/h 68% 0 mm 28.0 W/m2
15:59 -16 °C -20.6 °C 1043.6 hPa WNW 3.7 km/h 3.7 km/h 68% 0 mm 26.0 W/m2
16:04 -16.1 °C -20.6 °C 1043.6 hPa WNW 3.7 km/h 3.7 km/h 68% 0 mm 23.0 W/m2
16:06 -16.1 °C -20.7 °C 1043.6 hPa WNW 3.7 km/h 3.7 km/h 68% 0 mm 23.0 W/m2
16:11 -16.2 °C -20.7 °C 1043.6 hPa WNW 1.9 km/h 1.9 km/h 68% 0 mm 19.0 W/m2
16:12 -16.2 °C -20.7 °C 1043.6 hPa Calm     68% 0 mm 18.0 W/m2
16:17 -16.2 °C -20.6 °C 1043.6 hPa WNW 1.9 km/h 1.9 km/h 69% 0 mm 12.0 W/m2
16:22 -16.3 °C -20.7 °C 1043.6 hPa WNW 3.7 km/h 3.7 km/h 69% 0 mm 7.0 W/m2
16:24 -16.3 °C -20.7 °C 1043.6 hPa WNW 5.6 km/h 5.6 km/h 69% 0 mm 5.0 W/m2
16:29 -16.3 °C -20.7 °C 1043.6 hPa WNW 5.6 km/h 5.6 km/h 69% 0 mm 0.0 W/m2
16:30 -16.3 °C -20.7 °C 1043.6 hPa WNW 3.7 km/h 3.7 km/h 69% 0 mm 0.0 W/m2
16:35 -16.3 °C -20.5 °C 1043.6 hPa Calm     70% 0 mm 0.0 W/m2
16:37 -16.3 °C -20.5 °C 1043.6 hPa WNW 3.7 km/h 3.7 km/h 70% 0 mm 0.0 W/m2
16:39 -16.3 °C -20.5 °C 1043.6 hPa WNW 1.6 km/h 1.6 km/h 70% 0 mm 0.0 W/m2
16:44 -16.3 °C -20.5 °C 1043.6 hPa WNW 3.7 km/h 3.7 km/h 70% 0 mm 0.0 W/m2
16:45 -16.3 °C -20.5 °C 1043.6 hPa WNW 1.9 km/h   70% 0 mm 0.0 W/m2
16:49 -16.2 °C -20.4 °C 1043.6 hPa WNW 1.9 km/h 1.9 km/h 70% 0 mm 0.0 W/m2
16:51 -16.2 °C -20.4 °C 1043.6 hPa WNW 1.9 km/h 1.9 km/h 70% 0 mm 0.0 W/m2
16:52 -16.2 °C -20.4 °C 1043.2 hPa WNW 5.6 km/h 5.6 km/h 70% 0 mm 0.0 W/m2
16:55 -16.3 °C -20.5 °C 1043.6 hPa WNW 1.9 km/h 1.9 km/h 70% 0 mm 0.0 W/m2
17:00 -16.3 °C -20.5 °C 1043.6 hPa WNW 1.9 km/h 1.9 km/h 70% 0 mm 0.0 W/m2
17:05 -16.3 °C -20.6 °C 1043.6 hPa WNW 4.8 km/h 4.8 km/h 70% 0 mm 0.0 W/m2
17:10 -16.3 °C -20.6 °C 1043.6 hPa WNW 5.6 km/h 5.6 km/h 70% 0 mm 0.0 W/m2
17:12 -16.3 °C -20.6 °C 1043.6 hPa WNW 5.6 km/h 5.6 km/h 70% 0 mm 0.0 W/m2
17:17 -16.4 °C -20.6 °C 1043.6 hPa WNW 3.7 km/h 3.7 km/h 70% 0 mm 0.0 W/m2
17:18 -16.4 °C -20.6 °C 1043.6 hPa WNW 3.7 km/h 4.7 km/h 70% 0 mm 0.0 W/m2
17:19 -16.4 °C -20.6 °C 1043.6 hPa WNW 7.4 km/h 7.4 km/h 70% 0 mm 0.0 W/m2
17:24 -16.4 °C -20.6 °C 1043.6 hPa WNW 5.6 km/h 5.6 km/h 70% 0 mm 0.0 W/m2
17:29 -16.4 °C -20.6 °C 1043.6 hPa WNW 1.9 km/h   70% 0 mm 0.0 W/m2
17:30 -16.4 °C -20.6 °C 1043.6 hPa WNW 1.9 km/h 1.9 km/h 70% 0 mm 0.0 W/m2
17:35 -16.4 °C -20.6 °C 1043.6 hPa WNW 1.9 km/h   70% 0 mm 0.0 W/m2
17:37 -16.4 °C -20.6 °C 1043.6 hPa WNW 1.9 km/h 1.9 km/h 70% 0 mm 0.0 W/m2
17:39 -16.4 °C -20.7 °C 1043.6 hPa WNW 3.2 km/h 3.2 km/h 70% 0 mm 0.0 W/m2
17:42 -16.4 °C -20.7 °C 1043.6 hPa WNW 5.6 km/h 5.6 km/h 70% 0 mm 0.0 W/m2
17:47 -16.6 °C -20.8 °C 1043.6 hPa WNW 1.9 km/h 1.9 km/h 70% 0 mm 0.0 W/m2
17:50 -16.7 °C -20.8 °C 1043.6 hPa WNW 1.9 km/h 1.9 km/h 70% 0 mm 0.0 W/m2
17:53 -16.7 °C -20.9 °C 1043.6 hPa NW 7.4 km/h 7.4 km/h 70% 0 mm 0.0 W/m2
17:56 -16.8 °C -21 °C 1043.6 hPa NW 5.6 km/h 5.6 km/h 70% 0 mm 0.0 W/m2
18:01 -16.9 °C -21.1 °C 1043.6 hPa WNW 5.6 km/h 5.6 km/h 70% 0 mm 0.0 W/m2
18:06 -17.1 °C -21.1 °C 1043.6 hPa WNW 3.2 km/h 3.2 km/h 71% 0 mm 0.0 W/m2
18:08 -17.1 °C -21.1 °C 1043.6 hPa WNW 1.9 km/h 1.9 km/h 71% 0 mm 0.0 W/m2
18:13 -17.1 °C -21.1 °C 1043.6 hPa WNW 3.7 km/h 3.7 km/h 71% 0 mm 0.0 W/m2
18:14 -17.1 °C -20.9 °C 1043.6 hPa WNW 3.7 km/h 3.7 km/h 72% 0 mm 0.0 W/m2
18:15 -17.2 °C -21 °C 1043.6 hPa WNW 3.7 km/h 3.7 km/h 72% 0 mm 0.0 W/m2
18:19 -17.2 °C -21.1 °C 1043.6 hPa WNW 3.7 km/h 3.7 km/h 72% 0 mm 0.0 W/m2
18:20 -17.2 °C -21.1 °C 1043.6 hPa WNW 1.9 km/h 1.9 km/h 72% 0 mm 0.0 W/m2
18:25 -17.3 °C -21.1 °C 1043.9 hPa WNW 5.6 km/h 5.6 km/h 72% 0 mm 0.0 W/m2
18:26 -17.3 °C -21.1 °C 1043.9 hPa WNW 3.2 km/h 3.2 km/h 72% 0 mm 0.0 W/m2
18:31 -17.3 °C -21 °C 1043.9 hPa WNW 1.9 km/h   73% 0 mm 0.0 W/m2
18:32 -17.3 °C -21 °C 1043.9 hPa Calm     73% 0 mm 0.0 W/m2
18:37 -17.3 °C -21 °C 1043.9 hPa WNW 3.7 km/h 3.7 km/h 73% 0 mm 0.0 W/m2
18:40 -17.4 °C -21.1 °C 1043.9 hPa WNW 1.9 km/h 1.9 km/h 73% 0 mm 0.0 W/m2
18:44 -17.4 °C -20.9 °C 1043.9 hPa WNW 3.7 km/h 3.7 km/h 74% 0 mm 0.0 W/m2
18:47 -17.4 °C -20.9 °C 1043.6 hPa WNW 7.4 km/h 7.4 km/h 74% 0 mm 0.0 W/m2
18:50 -17.5 °C -21 °C 1043.9 hPa WNW 5.6 km/h 5.6 km/h 74% 0 mm 0.0 W/m2
18:54 -17.5 °C -21 °C 1043.9 hPa WNW 5.6 km/h 5.6 km/h 74% 0 mm 0.0 W/m2
18:55 -17.5 °C -21 °C 1043.9 hPa WNW 5.6 km/h 5.6 km/h 74% 0 mm 0.0 W/m2
18:59 -17.6 °C -21.1 °C 1043.9 hPa WNW 3.7 km/h 3.7 km/h 74% 0 mm 0.0 W/m2
19:00 -17.6 °C -21.1 °C 1043.9 hPa WNW 3.7 km/h 3.7 km/h 74% 0 mm 0.0 W/m2
19:05 -17.7 °C -21.2 °C 1043.9 hPa WNW 3.7 km/h 3.7 km/h 74% 0 mm 0.0 W/m2
19:06 -17.7 °C -21.2 °C 1043.9 hPa WNW 5.6 km/h 5.6 km/h 74% 0 mm 0.0 W/m2
19:10 -17.7 °C -21.1 °C 1043.6 hPa WNW 3.7 km/h 3.7 km/h 75% 0 mm 0.0 W/m2
19:11 -17.7 °C -21.1 °C 1043.6 hPa WNW 3.7 km/h   75% 0 mm 0.0 W/m2
19:16 -17.7 °C -21.1 °C 1043.9 hPa Calm     75% 0 mm 0.0 W/m2
19:21 -17.8 °C -21.1 °C 1043.9 hPa WNW 1.9 km/h   75% 0 mm 0.0 W/m2
19:26 -17.8 °C -21.2 °C 1043.6 hPa WNW 3.7 km/h 3.7 km/h 75% 0 mm 0.0 W/m2
19:31 -17.9 °C -21.3 °C 1043.6 hPa WNW 5.6 km/h 5.6 km/h 75% 0 mm 0.0 W/m2
19:33 -18 °C -21.3 °C 1043.6 hPa WNW 5.6 km/h 5.6 km/h 75% 0 mm 0.0 W/m2
19:37 -18.1 °C -21.4 °C 1043.2 hPa WNW 1.9 km/h   75% 0 mm 0.0 W/m2
19:40 -18.1 °C -21.3 °C 1043.2 hPa Calm     76% 0 mm 0.0 W/m2
19:45 -18.2 °C -21.6 °C 1043.2 hPa Calm     75% 0 mm 0.0 W/m2
19:50 -18.6 °C -22.2 °C 1043.2 hPa Calm     73% 0 mm 0.0 W/m2
19:55 -19.1 °C -22.9 °C 1043.2 hPa Calm     72% 0 mm 0.0 W/m2
19:56 -19.2 °C -22.9 °C 1043.2 hPa Calm     72% 0 mm 0.0 W/m2
19:58 -19.3 °C -23.1 °C 1043.2 hPa Calm     72% 0 mm 0.0 W/m2
20:01 -19.5 °C -23.3 °C 1042.9 hPa Calm     72% 0 mm 0.0 W/m2
20:05 -19.6 °C -23.2 °C 1042.9 hPa Calm     73% 0 mm 0.0 W/m2
20:07 -19.7 °C -23.3 °C 1042.9 hPa Calm     73% 0 mm 0.0 W/m2
20:12 -19.8 °C -23.4 °C 1042.9 hPa Calm     73% 0 mm 0.0 W/m2
20:16 -20 °C -23.6 °C 1042.9 hPa Calm     73% 0 mm 0.0 W/m2
20:17 -20.1 °C -23.7 °C 1042.9 hPa Calm     73% 0 mm 0.0 W/m2
20:21 -20.2 °C -23.8 °C 1042.5 hPa Calm     73% 0 mm 0.0 W/m2
20:24 -20.4 °C -24.1 °C 1042.5 hPa Calm     73% 0 mm 0.0 W/m2
20:29 -20.6 °C -23.8 °C 1042.5 hPa Calm     75% 0 mm 0.0 W/m2
20:30 -20.6 °C -23.7 °C 1042.5 hPa Calm     76% 0 mm 0.0 W/m2
20:33 -20.6 °C -23.7 °C 1042.5 hPa Calm     76% 0 mm 0.0 W/m2
20:37 -20.8 °C -23.9 °C 1042.5 hPa Calm     76% 0 mm 0.0 W/m2
20:40 -20.8 °C -23.9 °C 1042.5 hPa Calm     76% 0 mm 0.0 W/m2
20:44 -20.8 °C -23.8 °C 1042.5 hPa Calm     77% 0 mm 0.0 W/m2
20:46 -20.7 °C -23.6 °C 1042.5 hPa Calm     78% 0 mm 0.0 W/m2
20:50 -20.6 °C -23.4 °C 1042.9 hPa Calm     78% 0 mm 0.0 W/m2
20:56 -20.3 °C -22.8 °C 1042.9 hPa Calm     80% 0 mm 0.0 W/m2
20:57 -20.2 °C -22.8 °C 1042.9 hPa Calm     80% 0 mm 0.0 W/m2
21:02 -19.8 °C -22.3 °C 1042.9 hPa Calm     81% 0 mm 0.0 W/m2
21:06 -19.8 °C -22.2 °C 1042.9 hPa Calm     81% 0 mm 0.0 W/m2
21:07 -19.8 °C -22.2 °C 1042.9 hPa Calm     81% 0 mm 0.0 W/m2
21:13 -20 °C -22.7 °C 1042.9 hPa Calm     79% 0 mm 0.0 W/m2
21:18 -20.1 °C -22.6 °C 1043.2 hPa Calm     80% 0 mm 0.0 W/m2
21:20 -20 °C -22.6 °C 1043.2 hPa Calm     80% 0 mm 0.0 W/m2
21:22 -19.9 °C -22.3 °C 1043.2 hPa Calm     81% 0 mm 0.0 W/m2
21:26 -19.7 °C -22.2 °C 1043.2 hPa Calm     81% 0 mm 0.0 W/m2
21:27 -19.7 °C -21.9 °C 1043.2 hPa Calm     82% 0 mm 0.0 W/m2
21:31 -19.6 °C -21.8 °C 1043.2 hPa Calm     82% 0 mm 0.0 W/m2
21:36 -19.5 °C -21.8 °C 1043.2 hPa Calm     82% 0 mm 0.0 W/m2
21:41 -19.4 °C -21.7 °C 1043.6 hPa Calm     82% 0 mm 0.0 W/m2
21:42 -19.4 °C -21.7 °C 1043.6 hPa Calm     82% 0 mm 0.0 W/m2
21:46 -19.3 °C -21.6 °C 1043.6 hPa Calm     82% 0 mm 0.0 W/m2
21:50 -19.1 °C -21.3 °C 1043.2 hPa Calm     83% 0 mm 0.0 W/m2
21:51 -19.1 °C -21.2 °C 1043.2 hPa Calm     83% 0 mm 0.0 W/m2
21:56 -18.9 °C -21.1 °C 1043.2 hPa Calm     83% 0 mm 0.0 W/m2
21:57 -18.9 °C -21.1 °C 1043.2 hPa Calm     83% 0 mm 0.0 W/m2
22:02 -18.8 °C -20.9 °C 1043.2 hPa Calm     83% 0 mm 0.0 W/m2
22:05 -18.7 °C -20.8 °C 1043.2 hPa Calm     83% 0 mm 0.0 W/m2
22:08 -18.7 °C -20.8 °C 1043.2 hPa Calm     83% 0 mm 0.0 W/m2
22:13 -18.9 °C -21.4 °C 1042.9 hPa Calm     81% 0 mm 0.0 W/m2
22:14 -19 °C -21.4 °C 1042.9 hPa Calm     81% 0 mm 0.0 W/m2
22:17 -19.1 °C -21.7 °C 1042.9 hPa Calm     80% 0 mm 0.0 W/m2
22:20 -19.2 °C -21.8 °C 1042.9 hPa Calm     80% 0 mm 0.0 W/m2
22:22 -19.3 °C -21.9 °C 1042.9 hPa Calm     80% 0 mm 0.0 W/m2
22:23 -19.3 °C -22.1 °C 1042.5 hPa Calm     79% 0 mm 0.0 W/m2
22:27 -19.5 °C -22.2 °C 1042.5 hPa Calm     79% 0 mm 0.0 W/m2
22:30 -19.6 °C -22.3 °C 1042.5 hPa Calm     79% 0 mm 0.0 W/m2
22:32 -19.6 °C -22.3 °C 1042.5 hPa Calm     79% 0 mm 0.0 W/m2
22:37 -19.7 °C -22.4 °C 1042.5 hPa Calm     79% 0 mm 0.0 W/m2
22:42 -19.8 °C -22.6 °C 1042.9 hPa Calm     78% 0 mm 0.0 W/m2
22:43 -19.8 °C -22.5 °C 1042.9 hPa Calm     79% 0 mm 0.0 W/m2
22:48 -19.8 °C -22.5 °C 1043.2 hPa Calm     79% 0 mm 0.0 W/m2
22:53 -19.5 °C -21.9 °C 1043.2 hPa Calm     81% 0 mm 0.0 W/m2
22:58 -19.1 °C -21.3 °C 1043.2 hPa Calm     83% 0 mm 0.0 W/m2
22:59 -19.1 °C -21.2 °C 1043.6 hPa Calm     83% 0 mm 0.0 W/m2
23:04 -18.7 °C -20.9 °C 1043.6 hPa WNW 3.7 km/h 3.7 km/h 83% 0 mm 0.0 W/m2
23:07 -18.6 °C -20.8 °C 1043.6 hPa WNW 1.9 km/h 1.9 km/h 83% 0 mm 0.0 W/m2
23:12 -18.5 °C -20.8 °C 1043.6 hPa WNW 5.6 km/h 5.6 km/h 82% 0 mm 0.0 W/m2
23:17 -18.4 °C -20.8 °C 1043.6 hPa Calm     82% 0 mm 0.0 W/m2
23:21 -18.4 °C -20.7 °C 1043.2 hPa WNW 1.9 km/h 1.9 km/h 82% 0 mm 0.0 W/m2
23:23 -18.4 °C -20.7 °C 1043.2 hPa Calm     82% 0 mm 0.0 W/m2
23:27 -18.4 °C -20.8 °C 1043.2 hPa Calm     81% 0 mm 0.0 W/m2
23:28 -18.4 °C -20.8 °C 1042.9 hPa Calm     81% 0 mm 0.0 W/m2
23:32 -18.4 °C -20.8 °C 1042.9 hPa Calm     81% 0 mm 0.0 W/m2
23:36 -18.4 °C -20.9 °C 1042.9 hPa Calm     81% 0 mm 0.0 W/m2
23:40 -18.4 °C -20.9 °C 1042.9 hPa Calm     81% 0 mm 0.0 W/m2
23:43 -18.4 °C -20.9 °C 1042.9 hPa WNW 1.9 km/h   81% 0 mm 0.0 W/m2
23:48 -18.4 °C -20.8 °C 1042.9 hPa Calm     81% 0 mm 0.0 W/m2
23:53 -18.4 °C -20.8 °C 1042.9 hPa Calm     81% 0 mm 0.0 W/m2
23:54 -18.4 °C -20.8 °C 1042.9 hPa Calm     81% 0 mm 0.0 W/m2
23:58 -18.4 °C -20.8 °C 1042.9 hPa WNW 1.9 km/h 1.9 km/h 81% 0 mm 0.0 W/m2
23:59 -18.3 °C -20.8 °C 1042.9 hPa WNW 1.9 km/h 1.9 km/h 81% 0 mm 0.0 W/m2
Bourbonnais, Illinois, USA
Compliments of Weather Underground - 4 mb